Location: Unspecified
(0.0000°N, 0.0000°E)
Time: 02:47:13
(UTC+00:00)

deb r/b Ablestar - Pass Details

Date: 20 September 2024
Orbit: 702 x 890 km, 66.9° (Epoch: 08 October)

Event Time Altitude Azimuth Distance (km) Brightness Sun altitude
Rises 05:01:12 0° 330° (NNW) 3,072 ? -13.0°
Reaches altitude 10° 05:03:34 10° 324° (NW) 2,160 ? -12.4°
Maximum altitude 05:08:16 48° 250° (WSW) 930 ? -11.3°
Drops below altitude 10° 05:13:07 10° 176° (S) 2,225 ? -10.1°
Sets 05:15:36 0° 170° (S) 3,174 ? -9.4°
